Regional Weather Roundup
Issued by NWS San Angelo, TX

Home | Current Version | Previous Version | Text Only | Print | Product List | Glossary On
Versions: 1 2 3 4 5 6 7 8 9 10 11 12 13 14 15 16 17 18 19 20 21 22 23 24 25 26 27 28 29 30 31 32 33 34 35 36 37 38 39 40 41 42 43 44 45 46 47 48 49 50
000
ASUS44 KSJT 050910
RWRSJT
WEST CENTRAL TEXAS REGIONAL WEATHER ROUNDUP
NATIONAL WEATHER SERVICE SAN ANGELO TX
400 AM CDT WED AUG 05 2015

NOTE: "FAIR" INDICATES FEW OR NO CLOUDS BELOW 12,000 FEET WITH NO
SIGNIFICANT WEATHER AND/OR OBSTRUCTIONS TO VISIBILITY.

TXZ049-054-064>066-071>073-076>078-098-099-113-114-127-128-139-140-
154-155-168>170-051000
...LOCATIONS ACROSS WEST CENTRAL TEXAS...

CITY           SKY/WX    TMP DP  RH WIND       PRES   REMARKS
SAN ANGELO     CLEAR     81  64  56 S10       29.96S
ABILENE        CLEAR     82  64  54 S12       29.95R
DYESS AFB      CLEAR     83  65  54 S10       29.93S
JUNCTION       CLEAR     80  72  76 S14G20    29.99S
SWEETWATER     CLEAR     81  60  49 S12       29.99S
BROWNWOOD      PTCLDY    81  66  61 SE6       29.96F
COLEMAN        SUNNY     79  66  64 S8        29.97S
SONORA         CLEAR     81  70  69 S10       30.04S
OZONA          FAIR      79  63  57 S8        30.02S
BRADY          CLEAR     81  72  74 SE6       29.98S
$$

TEXAS PANHANDLE/OKLAHOMA PANHANDLE

CITY           SKY/WX    TMP DP  RH WIND       PRES   REMARKS
AMARILLO       CLEAR     73  66  78 S10       30.02S
BORGER         PTCLDY    77  66  68 SE6       29.98R
CANADIAN       CLEAR     77  68  74 CALM      29.94S
DALHART        CLEAR     72  67  84 SE6       30.03S
DUMAS          MOSUNNY   73  66  81 SW12      30.01S
GUYMON         NOT AVBL
HEREFORD       MOSUNNY   72  68  86 MISG      30.04S
PAMPA          SUNNY     73  67  81 S7        30.00S
PERRYTON       NOT AVBL
$$

SOUTHERN PANHANDLE/SOUTH PLAINS/ROLLING PLAINS

CITY           SKY/WX    TMP DP  RH WIND       PRES   REMARKS
LUBBOCK        PTCLDY    76  64  66 S8        30.01S
SNYDER         CLEAR     77  60  55 S6        29.98S
CHILDRESS      CLEAR     75  67  76 SE7       29.92S
SEMINOLE       SUNNY     76  59  55 SW8       30.04S
$$

PERMIAN BASIN

CITY           SKY/WX    TMP DP  RH WIND       PRES   REMARKS
MIDLAND        CLEAR     81  58  45 S8        30.00R
ODESSA         CLEAR     80  58  46 SW8       30.01S
WINK           CLEAR     79  60  52 SE7       29.98S
$$

FAR WEST/SOUTHWEST MOUNTAINS/TRANS PECOS

CITY           SKY/WX    TMP DP  RH WIND       PRES   REMARKS
ALPINE         SUNNY     65  59  81 SW5       30.19S
DRYDEN           N/A     83  61  47 VRB7      29.97S
EL PASO        PTCLDY    79  55  43 E6        30.03F
FORT STOCKTON  CLEAR     80  60  50 S15       30.01S
GUADALUPE PASS CLEAR     77  51  40 SW7       30.19S
MARFA          CLEAR     61  57  88 N6        30.18R
PECOS          SUNNY     78  58  50 SE6       29.97S
$$

DALLAS/FORT WORTH METROPLEX

CITY           SKY/WX    TMP DP  RH WIND       PRES   REMARKS
DFW AIRPORT    PTCLDY    86  69  56 S16       29.92R
FTW MEACHAM    CLEAR     85  69  58 S14G20    29.92R
DAL-EXECUTIVE  CLEAR     83  69  62 S8        29.93R
GRAND PRAIRIE  CLEAR     84  71  63 S12       29.93S
ADDISON        CLEAR     86  71  61 S10       29.94S
MESQUITE       MOSUNNY   81  69  67 S8        29.94S
LANCASTER      MOSUNNY   83  68  60 S9        29.95R
$$

NORTH CENTRAL TEXAS

CITY           SKY/WX    TMP DP  RH WIND       PRES   REMARKS
SHRMAN/DENISON SUNNY     82  71  69 S8        29.94R
GAINESVILLE    CLEAR     77  68  74 S3        29.94S
BRIDGEPORT     NOT AVBL
DENTON         CLEAR     83  69  62 S10       29.92R
WAXAHACHIE     MOSUNNY   82  70  67 S10       29.95S
GRANBURY       SUNNY     85  67  55 SE8       29.94R
$$

WESTERN NORTH TEXAS

CITY           SKY/WX    TMP DP  RH WIND       PRES   REMARKS
WICHITA FALLS  CLEAR     77  68  73 S9        29.90R
VERNON         SUNNY     76  65  69 CALM      29.91S
BRECKENRIDGE   SUNNY     83  64  53 S9        29.93R
COMANCHE       CLEAR     81  68  65 S13       29.96S
$$

CENTRAL AND SOUTH CENTRAL TEXAS

CITY           SKY/WX    TMP DP  RH WIND       PRES   REMARKS
AUSTIN/BERGSTM MOCLDY    78  76  93 S9        29.98R
WACO           CLEAR     82  72  71 S15       29.95S
HILLSBORO      SUNNY     82  67  62 S12       29.95S
TEMPLE         PTCLDY    79  70  73 S13       29.97S
KILLEEN-GRAY   CLEAR     79  73  82 S12       29.97R
FORT HOOD      CLEAR     79  73  80 S14       29.96R
GEORGETOWN     PTCLDY    81  72  74 S14G20    29.97S
LAGO VISTA     FAIR      79  73  80 S9        30.01R
SAN MARCOS     MOCLDY    79  75  89 S9        29.99F
NEW BRAUNFELS  PTCLDY    78  75  90 S5        29.97S
RANDOLPH AFB   CLOUDY    78  74  87 S6        29.99S
SAN ANTONIO    MOCLDY    80  74  81 S13       29.99S
STINSON        CLOUDY    80  75  84 S5        29.96F
PLEASANTON     NOT AVBL
LA GRANGE      CLEAR     78  77  96 S3        29.96S
GIDDINGS       SUNNY     77  74  91 CALM      30.02S
$$

EAST TEXAS

CITY           SKY/WX    TMP DP  RH WIND       PRES   REMARKS
PARIS          CLEAR     79  64  61 CALM      29.94R
CLARKSVILLE    NOT AVBL
TYLER          PTCLDY    82  71  69 S10       29.96S
LONGVIEW       CLEAR     82  72  71 S10       29.95S
PALESTINE      SUNNY     80  73  78 S6        29.98S
NACOGDOCHES    CLEAR     77  72  83 S3        29.98R
$$

TEXAS HILL COUNTRY AND EDWARDS PLATEAU

CITY           SKY/WX    TMP DP  RH WIND       PRES   REMARKS
LLANO          SUNNY     81  72  74 S5        30.01S
HORSESHOE BAY  FAIR      79  72  80 S3        29.99R
KERRVILLE      CLOUDY    76  73  88 S9        30.02F
FREDERICKSBRG  CLEAR     76  70  83 S6        30.02S
ROCKSPRINGS    PTSUNNY   75  72  88 SE14G20   30.05S
HONDO          MOCLDY    79  74  84 SE7       30.00F
UVALDE         SUNNY     77  74  88 E5        29.98S
DEL RIO        CLEAR     83  74  74 SE9       29.93S
$$

SOUTHEAST TEXAS

CITY           SKY/WX    TMP DP  RH WIND       PRES   REMARKS
COLLEGE STN    CLEAR     79  75  87 S6        29.98S
CALDWELL       MOSUNNY   77  77 100 S3        30.01S
CROCKETT       SUNNY     79  75  89 CALM      30.01S
BRENHAM        PTCLDY    79  77  94 CALM      29.99S
HUNTSVILLE     CLEAR     80  76  87 S8        29.98S
CONROE         CLEAR     76  72  87 CALM      29.99S
HOUSTON BUSH   PTCLDY    80  77  90 S3        29.98S
HOUSTON HOBBY  PTCLDY    80  77  90 S6        29.97F
PERLAND        CLEAR     81  76  84 S3        29.99F
WHARTON        SUNNY     75  74  96 SE3       29.98S
$$

THE UPPER TEXAS COAST

CITY           SKY/WX    TMP DP  RH WIND       PRES   REMARKS
ORANGE         SUNNY     80  80 100 CALM      30.00S
PORT ARTHUR    CLEAR     78  76  93 SW5       29.97F
GALVESTON      PTCLDY    86  77  74 S14       29.99S
ANGLETON       CLEAR     79  77  94 S3        29.98F
BAY CITY       MOSUNNY   79  77  95 CALM      29.97F
$$

TEXAS COASTAL BEND, RIO GRANDE PLAINS DEEP SOUTH TEXAS

CITY           SKY/WX    TMP DP  RH WIND       PRES   REMARKS
VICTORIA       CLEAR     79  78  97 S6        29.97S
BEEVILLE       FAIR      75  75 100 SE5       29.96F
ROCKPORT       MOCLDY    84  77  79 S8G18     29.96S
PORT ARANSAS   SUNNY     83  78  87 S9        29.96F
PORT LAVACA    MOSUNNY   79  77  94 S5        29.97S
CORPUS CHRISTI PTCLDY    80  77  90 SE7       29.96S
KINGSVILLE NAS CLOUDY    80  79  96 CALM      29.95F
COTULLA        CLEAR     81  74  79 S10       29.94F
LAREDO         CLEAR     82  73  74 SE12      29.95F
BROWNSVILLE    CLEAR    N/A N/A N/A S8        29.95S
PORT ISABEL    CLEAR     81  78  91 S8        29.95R
HEBBRONVILLE     N/A     76  74  93 SE6       29.97F
MCALLEN        CLEAR     83  76  79 SE12      29.94F
WESLACO        CLEAR     80  75  84 SE5       29.94S
FALFURRIAS     SUNNY     78  75  92 CALM      29.95S
EDINBURG       MOSUNNY   80  75  86 SE3       29.95S
$$


USA.gov is the U.S. government's official web portal to all federal, state and local government web resources and services.